Location: Castillon
(43.0896°N, 0.2156°E)
Time: 10:18:13
(UTC+00:00)

Cosmos 1544 Rocket - Pass Details

Date: 25 October 2021
Orbit: 603 x 631 km, 82.5° (Epoch: 08 December)

Event Time Altitude Azimuth Distance (km) Brightness Sun altitude
Rises 19:14:37 0° 232° (SW) 2,915 7.7 -25.1°
Reaches altitude 10° 19:17:43 10° 255° (WSW) 2,013 7.1 -25.6°
Maximum altitude 19:20:20 15° 291° (WNW) 1,695 6.6 -26.1°
Drops below altitude 10° 19:22:58 10° 327° (NNW) 2,018 6.7 -26.6°
Sets 19:26:06 0° 351° (N) 2,928 7.2 -27.1°
